Location: ?????????
(54.7630°N, 39.4991°E)
Time: 10:39:51
(UTC+00:00)

USA 234 - Pass Details

Date: 14 April 2026
Orbit: 1102 x 1106 km, 123.0° (Epoch: 4 January)

Event Time Altitude Azimuth Distance (km) Brightness Sun altitude
Rises 22:20:30 0° 115° (ESE) 3,915 6.1 -24.4°
Reaches altitude 10° 22:22:59 10° 116° (ESE) 2,959 5.4 -24.3°
Maximum altitude 22:29:32 80° 204° (SSW) 1,123 3.1 -24.0°
Drops below altitude 10° 22:36:07 10° 292° (WNW) 2,969 5.5 -23.7°
Sets 22:38:37 0° 294° (WNW) 3,929 6.2 -23.6°
